Regional Weather Roundup
Issued by NWS

Home | Current Version | Previous Version | Graphics & Text | Print | Product List | Glossary On
Versions: 1 2 3 4 5 6 7 8 9 10 11 12 13 14 15 16 17 18 19 20 21 22 23 24 25 26 27 28 29 30 31 32 33 34 35 36 37 38 39 40 41 42 43 44 45 46 47 48 49 50
000
ASUS45 KTFX 210710
RWRMT
MONTANA REGIONAL WEATHER ROUNDUP
NATIONAL WEATHER SERVICE GREAT FALLS MT
100 AM MDT MON AUG 21 2017

NOTE: "FAIR" INDICATES FEW OR NO CLOUDS BELOW 12000 FEET WITH NO
SIGNIFICANT WEATHER AND/OR OBSTRUCTIONS TO VISIBILITY.

MTZ001>007-043-210800-
WEST OF THE DIVIDE

CITY           SKY/WX    TMP DP  RH WIND       PRES   REMARKS
KALISPELL      CLEAR     52  42  69 NW5       30.09R
MISSOULA       CLEAR     57  38  48 SE5       30.11R
BUTTE          PTCLDY    58  31  35 CALM      30.20R
MULLAN PASS    CLEAR     54  32  43 NW5       30.24R
ANACONDA         N/A     57  32  38 SW5       30.17R
DEER LODGE       N/A     61  34  36 NW8       30.17R
EUREKA           N/A     59  36  41 MISG        N/A
HAMILTON         N/A     54  41  62 CALM      30.13R
LIBBY            N/A     54  39  58 CALM      30.09R
RONAN            N/A     50  41  71 CALM      30.14R
$$

MTZ008-052>055-210800-
SOUTHWEST MONTANA

CITY           SKY/WX    TMP DP  RH WIND       PRES   REMARKS
BOZEMAN        PTCLDY    56  39  53 SE9       30.14R
DILLON         CLOUDY    58  29  33 S7        30.16R
W YELLOWSTONE  CLOUDY    50  37  62 S3        30.23R
ENNIS          CLOUDY    55  30  38 SE5       30.22R
THREE FORKS      N/A     56  36  47 CALM      30.11R
$$

MTZ009-010-012-014-046-048-049-054-210800-
EAST SLOPES AND CENTRAL MONTANA

CITY           SKY/WX    TMP DP  RH WIND       PRES   REMARKS
CUT BANK       MOCLDY    56  36  47 W5        30.09R
GREAT FALLS    CLOUDY    57  30  35 SW5       30.09R
MALMSTROM AFB  CLOUDY    58  29  33 S8        30.09R
HELENA         CLOUDY    67  32  27 SW7       30.11R
AUGUSTA          N/A     59  33  37 NW10      30.12R
BOWMANS CRNR     N/A     61  28  28 CALM      30.11R
CHOTEAU          N/A     55  36  47 W5        30.12R
FAIRFIELD        N/A     57  33  40 NW3       30.10R
POWER            N/A     54  31  42 CALM      30.09R
RAYNESFORD       N/A     52  30  42 E6        30.11S
ULM              N/A     55  29  35 SE6       30.10R
$$

MTZ011-013-016-021-045-047-050-051-210800-
NORTH CENTRAL MONTANA

CITY           SKY/WX    TMP DP  RH WIND       PRES   REMARKS
HAVRE          CLOUDY    65  33  30 S8        30.02S
LEWISTOWN      PTCLDY    57  33  40 S7        30.10R
N BAR RANCH      N/A     59  30  33 CALM      30.14R
CHINOOK          N/A     63  36  36 CALM      30.02R
DENTON           N/A     59  30  33 W7        30.05R
GEYSER           N/A     58  28  31 SW10      30.10S
GRASS RANGE      N/A     58  32  36 SW9       30.05S
JUDITH GAP     MOCLDY    55  31  39 N6        30.13R
WINIFRED       MOCLDY    60  29  30 NE14G20   30.08R
$$

MTZ017>020-022>027-061-062-210800-
NORTHEAST MONTANA

CITY           SKY/WX    TMP DP  RH WIND       PRES   REMARKS
GLASGOW        CLOUDY    64  32  30 NW5       29.99R
JORDAN           N/A     60  34  37 N3        30.02R
SIDNEY         CLOUDY    58  47  66 S8        29.97S
WOLF POINT     PTCLDY    57  38  48 NW5       29.96R
MALTA          PTCLDY    68  32  26 N9        30.00R
PLENTYWOOD       N/A     64  43  45 S6        29.95F
POPLAR           N/A     66  43  42 S3        29.96S
$$

MTZ028>42-056>058-210800-
SOUTHCENTRAL AND SOUTHEAST MONTANA

CITY           SKY/WX    TMP DP  RH WIND       PRES   REMARKS
BAKER          PTCLDY    61  46  57 SE12      29.98S
BILLINGS       PTCLDY    67  33  28 CALM      30.06R
LIVINGSTON     CLOUDY    57  31  37 W7        30.13R
MILES CITY     PTCLDY    67  41  38 N8        29.96R
BIG TIMBER     CLEAR     55  30  38 SW5       30.15R
HARLOWTON      MOCLDY    61  30  30 MISG      30.12R
LAUREL           N/A     61  33  34 W2        30.05F
$$

REGIONAL REPORTS...DAKOTAS

CITY           SKY/WX    TMP DP  RH WIND       PRES   REMARKS
WILLISTON      CLEAR     62  44  51 S7        29.96S
MINOT          CLOUDY    64  50  60 S10       29.96F
DICKINSON      MOCLDY    61  46  57 VRB7      30.00R
BEACH          MOCLDY    57  48  72 SE12      30.02S
CROSBY         MOCLDY    63  45  51 S13       29.96R
TIOGA            N/A     59  45  58 S14       29.98F
WATFORD CITY     N/A     61  43  51 S8G14     29.96F
BISMARCK       PTCLDY    56  52  86 NE5       30.02F
GRAND FORKS    CLOUDY    55  52  89 S3        30.01F
FARGO          PTCLDY    58  54  86 CALM      30.02F
BUFFALO SD       N/A     61  52  72 S26       29.91F
RAPID CITY     PTCLDY    62  54  74 NE10      30.01S
$$

REGIONAL REPORTS...WYOMING/IDAHO/WASHINGTON

CITY           SKY/WX    TMP DP  RH WIND       PRES   REMARKS
GILLETTE       CLEAR     59  43  55 CALM      30.04R
SHERIDAN       CLOUDY    59  42  53 S3        30.05R
BUFFALO WY     CLEAR     64  34  32 NW5       30.12R
CODY           CLOUDY    63  28  26 W3        30.15R
YELLOWSTONE LA   N/A     42  35  76 CALM      30.32R
IDAHO FALLS    CLEAR     65  38  36 S9        30.10R
SALMON         MOCLDY    62  37  39 CALM      30.11R
BOISE          CLOUDY    68  37  32 SE3       30.01R
SPOKANE        PTCLDY    65  38  36 CALM      30.09R
$$

REGIONAL REPORTS...ALBERTA

CITY           SKY/WX    TMP DP  RH WIND       PRES   REMARKS
EDMONTON       CLEAR     46  45  93 W6        30.06R
CALGARY        PTCLDY    50  41  71 CALM      30.15R
LETHBRIDGE     CLOUDY    61  39  44 N9        30.08R
MEDICINE HAT   CLOUDY    63  41  45 N14       30.04R
$$

REGIONAL REPORTS...SASKATCHEWAN

CITY           SKY/WX    TMP DP  RH WIND       PRES   REMARKS
SWIFT CURRENT  CLOUDY    55  37  50 N7        30.03R
REGINA         MOCLDY    59  41  51 NE15      29.93F
SASKATOON      CLOUDY    52  45  76 SW8       30.00R
$$



USA.gov is the U.S. government's official web portal to all federal, state and local government web resources and services.